Погода Бузаубай

Погода Бузаубай : погода сейчас, прогноз погоды и архив. Всё, что Вы хотите узнать о погоде Бузаубай!

Хотите узнать прогноз погоды Бузаубай? Тогда Вам сюда: Погода Бузаубай

Поиск расширенной информации на нашем сайте:

Другие новости

Новости СМИ2

Главная страница сайта

Новости сайта

03.07.2017

Напоминаем, что на нашем специализированном сайте Метеоцентр.Азия вы можете получить высокодетализированные автоматические прогнозы погоды по пунктам России, СНГ и мира в авиационном формате (включающие направление и скорость ветра, видимость, явления погоды, количество и форму облачности, нижнюю и верхнюю границу облачности).


Погода Бузаубай - сегодня

Время (UTC), дата Ветер
(°,м/с) 
Видим.   Явления Облачность Т
(°С)
Тd
(°С)
f(%) Тe
(°С)
Pmin
(гПа)
dP
(гПа)
Po
(мм)
O2
(г/м3)
Тmin Tmax R s Состояние
почвы
09 19.07.17 040 (СВ) 10 км    ясно 
+36.3 +17.1 32 +49  1013.2  -0.5  752  264           
12 19.07.17 030 (СВ) 10 км    ясно 
+36.4 +16.2 30 +47  1012.7  -0.5  751  264           
15 19.07.17 010 (С) 10 км    ясно 
+35 +16.5 33 +46  1012.9  0.2  752  265    +37.4       
18 19.07.17 020 (С) н/о    ясно 
+30 +12.1 33 +34  1013.7  0.6  752  271    +37.4       
21 19.07.17 030 (СВ) н/о    ясно 
+27.8 +12 38 +32  1012.2  -1.6  751  272           
00 20.07.17 030 (СВ) 10 км    ясно 
+26.2 +11.8 41 +30  1011.3  -0.9  750  274           
03 20.07.17 030 (СВ) 10 км    ясно 
+27.9 +12.3 38 +32  1011.3  0.7  752  273           
06 20.07.17 040 (СВ) 10 км    ясно 
+33.8 +15.9 34 +44  1011.4  0.4  750  266  +26.2         
09 20.07.17 040 (СВ) 10 км    ясно 
+36.5 +16.8 31 +48  1010.4  -0.9  750  263           
12 20.07.17 030 (СВ) 10 км    ясно 
+36.7 +16.2 30 +48  1009.5  -0.9  749  263           
15 20.07.17 040 (СВ) 10 км    ясно 
+36 +16.7 32 +48  1008.6  -0.9  748  263    +37.6       
18 20.07.17 010 (С) н/о    ясно 
+30.3 +12.8 34 +35  1008.9  0.1  748  269    +37.6       
21 20.07.17 010 (С) н/о    ясно 
+26.8 +11.4 38 +30  1009.1  748  273           
00 21.07.17 010 (С) 10 км    ясно 
+25 +11.2 42 +28  1009  -0.1  748  274           
03 21.07.17 010 (С) 10 км    ясно 
+28 +12.7 39 +33  1009.4  0.5  749  271           
06 21.07.17 040 (СВ) 10 км    3/0 верхняя 
[Ci fib]
+35.4 +17.5 35 +49  1010.6  1.4  750  264  +25         
09 21.07.17 040 (СВ) 10 км    ясно 
+37 +17.5 32 +50  1009.6  -0.9  749  262           
12 21.07.17 040 (СВ) 10 км    ясно 
+38.2 +18 31 +53  1008.4  -1.1  748  261           
15 21.07.17 030 (СВ) 10 км    ясно 
+37.4 +18.5 33 +53  1007.8  -0.7  748  261    +39       
18 21.07.17 030 (СВ) н/о    ясно 
+31.6 +14.2 35 +39  1009.1  1.1  749  268    +39       
21 21.07.17 030 (СВ) н/о    ясно 
+29 +12.9 37 +34  1009.6  0.4  749  270           
00 22.07.17 020 (С) 10 км    ясно 
+27.4 +12.3 39 +32  1010.3  0.6  749  272           
03 22.07.17 030 (СВ) 10 км    ясно 
+29.6 +13.8 38 +36  1010.4  752  271           
06 22.07.17 040 (СВ) 10 км    ясно 
+37.8 +19.2 34 +55  1011.7  1.5  751  261  +27.4         
09 22.07.17 040 (СВ) 10 км    ясно 
+39.5 +19 31 +56  1011.2  -0.4  750  260           
Время (UTC), дата Ветер
(°,м/с) 
Видим.   Явления Облачность Т
(°С)
Тd
(°С)
f(%) Тe
(°С)
Pmin
(гПа)
dP
(гПа)
Po
(мм)
O2
(г/м3)
Тmin Tmax R s Состояние
почвы

Для получения пояснительной информации подведите курсор к названию столбца.

ПОГОДА Бузаубай - архив

Всё, что Вы хотите узнать о погоде Бузаубай - удобно и подробно!

Выберите нужную дату (начиная с 1 января 2015* года) и нажмите кнопку "Найти".
Будут отображены архивные сводки погоды по пункту Бузаубай, начиная с указанной даты.


Отображать данные в формате CSV (для использования в таблицах Excel)


Внимание! Наш архив погоды предназначен исключительно для личного некоммерческого использования в познавательных целях. Если Вам необходимы официальные справки о состоянии погоды (для производственных, юридических, коммерческих и т.п. целей), обращайтесь в органы Росгидромета.

*Примечание: данная дата относится к архиву по метеостанциям СССР (Россия, СНГ, Балтия).
Архив по метеостанциям Зарубежной Европы и Азии (кроме Китая) хранится 10 дней, по другим регионам земного шара (Китай, Африка, Америка, Австралия, Океания) - 1 день.

Бузаубай - район местоположения метеостанции


Название, широта, долгота, высота метеостанции:
Бузаубай 41.8°ш. 62.5°д. 98 м над ур. моря [Узбекистан]

Дополнительная информация

В oтличие oт бoльшинства пoгoдных сайтoв мы публикуем пoдрoбную метеoинфoрмацию в детальнoм прoфессиoнальнoм фoрмате.

Характеристики температуры и влажнoсти вoздуха измеряются на высoте 2 м в тени вдали oт зданий и деревьев.
Скoрoсть ветра измеряется на высoте 10 м (на урoвне рoста челoвека скoрoсть ветра ниже в 1.5-2 раза). Если метеoстанция нахoдится в гoрoде или в лесу, тo скoрoсть ветра занижена на 2-4 м/с пo сравнению с oткрытым местoм. Скoрoсть ветра над акватoриями крупных рек и oзёр, а также на вершинах хoлмoв на 2-5 м/с выше, чем в oбычных услoвиях.
Атмoсфернoе давление в разных тoчках местнoсти мoжет значительнo oтличаться oт давления на метеoстанции, в зависимoсти oт услoвий рельефа (при пoдъёме на 10 м давление пoнижается примернo на 1 мм рт.ст.).